Time,TemperatureF,DewpointF,PressureIn,WindDirection,WindDirectionDegrees,WindSpeedMPH,WindSpeedGustMPH,Humidity,HourlyPrecipIn,Conditions,Clouds,dailyrainin,SoftwareType,DateUTC
2013-06-16 00:06:00,73.5,67.0,29.91,West,261,6.0,20.0,81,0.00,,,0.00,weatherlink.com 1.10,2013-06-16 05:06:00,
2013-06-16 00:21:00,72.9,67.0,29.91,WSW,252,9.0,13.0,81,0.00,,,0.00,weatherlink.com 1.10,2013-06-16 05:21:00,
2013-06-16 00:36:00,71.1,65.0,29.91,WSW,252,5.0,14.0,80,0.00,,,0.00,weatherlink.com 1.10,2013-06-16 05:36:00,
2013-06-16 00:51:00,70.2,64.0,29.91,West,276,3.0,14.0,80,0.00,,,0.00,weatherlink.com 1.10,2013-06-16 05:51:00,
2013-06-16 01:07:00,69.9,64.0,29.90,WSW,255,2.0,11.0,80,0.00,,,0.00,weatherlink.com 1.10,2013-06-16 06:07:00,
2013-06-16 01:22:00,69.6,63.0,29.89,WNW,301,3.0,9.0,80,0.00,,,0.00,weatherlink.com 1.10,2013-06-16 06:22:00,
2013-06-16 01:37:00,69.8,63.0,29.88,West,272,0.0,11.0,79,0.00,,,0.00,weatherlink.com 1.10,2013-06-16 06:37:00,
2013-06-16 01:52:00,69.5,63.0,29.86,WNW,293,0.0,8.0,79,0.00,,,0.00,weatherlink.com 1.10,2013-06-16 06:52:00,
2013-06-16 02:07:00,69.3,63.0,29.86,West,259,1.0,7.0,80,0.00,,,0.00,weatherlink.com 1.10,2013-06-16 07:07:00,
2013-06-16 02:22:00,68.7,63.0,29.85,WSW,256,1.0,7.0,82,0.00,,,0.00,weatherlink.com 1.10,2013-06-16 07:22:00,
2013-06-16 02:37:00,68.3,63.0,29.85,West,259,3.0,6.0,82,0.00,,,0.00,weatherlink.com 1.10,2013-06-16 07:37:00,
2013-06-16 02:52:00,67.9,63.0,29.84,WNW,290,1.0,4.0,83,0.00,,,0.00,weatherlink.com 1.10,2013-06-16 07:52:00,
2013-06-16 03:08:00,67.7,63.0,29.84,WSW,244,2.0,4.0,84,0.00,,,0.00,weatherlink.com 1.10,2013-06-16 08:08:00,
2013-06-16 03:22:00,67.4,63.0,29.86,SW,219,0.0,4.0,85,0.00,,,0.00,weatherlink.com 1.10,2013-06-16 08:22:00,
2013-06-16 03:37:00,67.2,63.0,29.86,West,263,1.0,7.0,85,0.00,,,0.00,weatherlink.com 1.10,2013-06-16 08:37:00,
2013-06-16 03:52:00,66.8,63.0,29.87,West,261,1.0,2.0,86,0.00,,,0.00,weatherlink.com 1.10,2013-06-16 08:52:00,
2013-06-16 04:07:00,66.8,63.0,29.88,WNW,288,0.0,4.0,87,0.00,,,0.00,weatherlink.com 1.10,2013-06-16 09:07:00,
2013-06-16 04:22:00,66.8,63.0,29.88,West,273,2.0,3.0,87,0.00,,,0.00,weatherlink.com 1.10,2013-06-16 09:22:00,
2013-06-16 04:37:00,66.6,63.0,29.88,West,264,1.0,3.0,88,0.00,,,0.00,weatherlink.com 1.10,2013-06-16 09:37:00,
2013-06-16 04:52:00,66.3,63.0,29.89,West,263,0.0,4.0,88,0.00,,,0.00,weatherlink.com 1.10,2013-06-16 09:52:00,
2013-06-16 05:07:00,66.2,63.0,29.88,West,268,0.0,4.0,89,0.00,,,0.00,weatherlink.com 1.10,2013-06-16 10:07:00,
2013-06-16 05:22:00,66.3,63.0,29.89,West,263,1.0,5.0,89,0.00,,,0.00,weatherlink.com 1.10,2013-06-16 10:22:00,
2013-06-16 05:37:00,66.6,63.0,29.89,West,275,1.0,6.0,88,0.00,,,0.00,weatherlink.com 1.10,2013-06-16 10:37:00,
2013-06-16 05:52:00,67.2,63.0,29.90,WSW,257,3.0,8.0,86,0.00,,,0.00,weatherlink.com 1.10,2013-06-16 10:52:00,
2013-06-16 06:07:00,67.6,63.0,29.89,SW,233,2.0,9.0,86,0.00,,,0.00,weatherlink.com 1.10,2013-06-16 11:07:00,
2013-06-16 06:22:00,67.9,63.0,29.89,West,269,4.0,8.0,85,0.00,,,0.00,weatherlink.com 1.10,2013-06-16 11:22:00,
2013-06-16 06:37:00,68.2,63.0,29.89,WSW,248,2.0,8.0,84,0.00,,,0.00,weatherlink.com 1.10,2013-06-16 11:37:00,
2013-06-16 06:52:00,69.2,64.0,29.90,West,259,1.0,9.0,84,0.00,,,0.00,weatherlink.com 1.10,2013-06-16 11:52:00,
2013-06-16 07:07:00,69.5,64.0,29.90,West,261,0.0,5.0,82,0.00,,,0.00,weatherlink.com 1.10,2013-06-16 12:07:00,
2013-06-16 07:22:00,69.9,65.0,29.89,SW,229,3.0,7.0,83,0.00,,,0.00,weatherlink.com 1.10,2013-06-16 12:22:00,
2013-06-16 07:37:00,70.1,64.0,29.91,WNW,290,1.0,8.0,82,0.00,,,0.00,weatherlink.com 1.10,2013-06-16 12:37:00,
2013-06-16 07:52:00,71.3,66.0,29.90,West,267,2.0,8.0,83,0.00,,,0.00,weatherlink.com 1.10,2013-06-16 12:52:00,
2013-06-16 08:07:00,72.7,65.0,29.91,WNW,300,3.0,10.0,77,0.00,,,0.00,weatherlink.com 1.10,2013-06-16 13:07:00,
2013-06-16 08:22:00,72.9,65.0,29.91,WSW,252,5.0,12.0,77,0.00,,,0.00,weatherlink.com 1.10,2013-06-16 13:22:00,
2013-06-16 08:37:00,74.0,67.0,29.91,SSW,203,3.0,10.0,79,0.00,,,0.00,weatherlink.com 1.10,2013-06-16 13:37:00,
2013-06-16 08:52:00,74.7,67.0,29.91,SSW,213,5.0,14.0,77,0.00,,,0.00,weatherlink.com 1.10,2013-06-16 13:52:00,
2013-06-16 09:07:00,75.4,67.0,29.91,SW,228,3.0,16.0,75,0.00,,,0.00,weatherlink.com 1.10,2013-06-16 14:07:00,
2013-06-16 09:22:00,73.9,66.0,29.91,West,274,2.0,11.0,77,0.00,,,0.00,weatherlink.com 1.10,2013-06-16 14:22:00,
2013-06-16 09:37:00,73.7,66.0,29.91,West,263,3.0,10.0,77,0.00,,,0.00,weatherlink.com 1.10,2013-06-16 14:37:00,
2013-06-16 09:52:00,74.1,66.0,29.91,West,259,4.0,10.0,77,0.00,,,0.00,weatherlink.com 1.10,2013-06-16 14:52:00,
2013-06-16 10:07:00,73.7,66.0,29.91,West,264,3.0,11.0,78,0.00,,,0.00,weatherlink.com 1.10,2013-06-16 15:07:00,
2013-06-16 10:22:00,73.7,67.0,29.91,WSW,258,2.0,10.0,79,0.00,,,0.00,weatherlink.com 1.10,2013-06-16 15:22:00,
2013-06-16 10:37:00,73.7,67.0,29.91,NW,304,2.0,12.0,79,0.00,,,0.00,weatherlink.com 1.10,2013-06-16 15:37:00,
2013-06-16 10:52:00,73.5,67.0,29.91,NNW,330,5.0,9.0,79,0.00,,,0.00,weatherlink.com 1.10,2013-06-16 15:52:00,
2013-06-16 11:07:00,73.8,68.0,29.91,West,261,2.0,9.0,81,0.00,,,0.00,weatherlink.com 1.10,2013-06-16 16:07:00,
2013-06-16 11:22:00,74.7,67.0,29.91,West,272,3.0,8.0,78,0.00,,,0.00,weatherlink.com 1.10,2013-06-16 16:22:00,
2013-06-16 11:37:00,75.9,68.0,29.91,WSW,258,2.0,9.0,77,0.00,,,0.00,weatherlink.com 1.10,2013-06-16 16:37:00,
2013-06-16 11:52:00,76.4,68.0,29.91,WSW,244,2.0,9.0,76,0.00,,,0.00,weatherlink.com 1.10,2013-06-16 16:52:00,
2013-06-16 12:07:00,76.2,69.0,29.91,SW,236,1.0,8.0,77,0.00,,,0.00,weatherlink.com 1.10,2013-06-16 17:07:00,
2013-06-16 12:22:00,76.5,68.0,29.91,West,265,4.0,9.0,76,0.00,,,0.00,weatherlink.com 1.10,2013-06-16 17:22:00,
2013-06-16 12:38:00,76.2,68.0,29.91,WSW,256,2.0,9.0,75,0.00,,,0.00,weatherlink.com 1.10,2013-06-16 17:38:00,
2013-06-16 12:53:00,76.4,68.0,29.91,WNW,284,1.0,8.0,76,0.00,,,0.00,weatherlink.com 1.10,2013-06-16 17:53:00,
2013-06-16 13:08:00,77.8,69.0,29.91,WNW,287,10.0,10.0,74,0.00,,,0.00,weatherlink.com 1.10,2013-06-16 18:08:00,
2013-06-16 13:23:00,77.5,69.0,29.91,West,272,4.0,7.0,74,0.00,,,0.00,weatherlink.com 1.10,2013-06-16 18:23:00,
2013-06-16 13:38:00,78.4,71.0,29.90,NW,306,4.0,9.0,77,0.00,,,0.00,weatherlink.com 1.10,2013-06-16 18:38:00,
2013-06-16 13:53:00,80.0,69.0,29.90,NW,311,2.0,8.0,69,0.00,,,0.00,weatherlink.com 1.10,2013-06-16 18:53:00,
2013-06-16 14:08:00,79.3,70.0,29.90,West,269,6.0,7.0,72,0.00,,,0.00,weatherlink.com 1.10,2013-06-16 19:08:00,
2013-06-16 14:23:00,79.2,69.0,29.90,WSW,251,1.0,11.0,72,0.00,,,0.00,weatherlink.com 1.10,2013-06-16 19:23:00,
2013-06-16 14:38:00,80.0,70.0,29.89,WSW,252,3.0,9.0,71,0.00,,,0.00,weatherlink.com 1.10,2013-06-16 19:38:00,
2013-06-16 14:53:00,79.8,70.0,29.90,WSW,246,4.0,8.0,73,0.00,,,0.00,weatherlink.com 1.10,2013-06-16 19:53:00,
2013-06-16 15:08:00,80.7,70.0,29.89,WSW,239,1.0,10.0,69,0.00,,,0.00,weatherlink.com 1.10,2013-06-16 20:08:00,
2013-06-16 15:23:00,79.1,69.0,29.89,WSW,244,2.0,8.0,70,0.00,,,0.00,weatherlink.com 1.10,2013-06-16 20:23:00,
2013-06-16 15:38:00,79.1,69.0,29.89,West,270,1.0,7.0,72,0.00,,,0.00,weatherlink.com 1.10,2013-06-16 20:38:00,
2013-06-16 15:53:00,80.5,72.0,29.88,West,269,2.0,7.0,74,0.00,,,0.00,weatherlink.com 1.10,2013-06-16 20:53:00,
2013-06-16 16:08:00,81.6,70.0,29.88,West,265,6.0,12.0,68,0.00,,,0.00,weatherlink.com 1.10,2013-06-16 21:08:00,
2013-06-16 16:23:00,81.7,69.0,29.88,WSW,251,2.0,12.0,65,0.00,,,0.00,weatherlink.com 1.10,2013-06-16 21:23:00,
2013-06-16 16:38:00,81.9,69.0,29.88,West,272,3.0,10.0,64,0.00,,,0.00,weatherlink.com 1.10,2013-06-16 21:38:00,
2013-06-16 16:53:00,81.9,69.0,29.88,West,263,4.0,9.0,65,0.00,,,0.00,weatherlink.com 1.10,2013-06-16 21:53:00,
2013-06-16 17:08:00,82.3,69.0,29.88,WSW,245,2.0,10.0,64,0.00,,,0.00,weatherlink.com 1.10,2013-06-16 22:08:00,
2013-06-16 17:23:00,82.9,70.0,29.87,West,271,3.0,6.0,66,0.00,,,0.00,weatherlink.com 1.10,2013-06-16 22:23:00,
2013-06-16 17:38:00,82.4,71.0,29.87,WSW,253,0.0,7.0,69,0.00,,,0.00,weatherlink.com 1.10,2013-06-16 22:38:00,
2013-06-16 17:53:00,82.2,70.0,29.87,West,268,1.0,6.0,66,0.00,,,0.00,weatherlink.com 1.10,2013-06-16 22:53:00,
2013-06-16 18:08:00,82.7,70.0,29.87,West,280,0.0,3.0,65,0.00,,,0.00,weatherlink.com 1.10,2013-06-16 23:08:00,
2013-06-16 18:23:00,82.6,68.0,29.87,WNW,287,0.0,6.0,61,0.00,,,0.00,weatherlink.com 1.10,2013-06-16 23:23:00,
2013-06-16 18:38:00,82.1,67.0,29.86,SW,216,0.0,8.0,61,0.00,,,0.00,weatherlink.com 1.10,2013-06-16 23:38:00,
2013-06-16 18:53:00,81.1,67.0,29.86,WNW,294,0.0,7.0,63,0.00,,,0.00,weatherlink.com 1.10,2013-06-16 23:53:00,
2013-06-16 19:08:00,79.4,66.0,29.86,WNW,284,2.0,7.0,64,0.00,,,0.00,weatherlink.com 1.10,2013-06-17 00:08:00,
2013-06-16 19:24:00,77.8,66.0,29.86,WNW,290,0.0,4.0,68,0.00,,,0.00,weatherlink.com 1.10,2013-06-17 00:24:00,
2013-06-16 19:38:00,76.7,67.0,29.86,West,261,0.0,2.0,71,0.00,,,0.00,weatherlink.com 1.10,2013-06-17 00:38:00,
2013-06-16 19:53:00,75.2,67.0,29.87,West,268,0.0,2.0,75,0.00,,,0.00,weatherlink.com 1.10,2013-06-17 00:53:00,
2013-06-16 20:08:00,74.2,66.0,29.86,West,268,0.0,0.0,76,0.00,,,0.00,weatherlink.com 1.10,2013-06-17 01:08:00,
2013-06-16 20:23:00,73.1,66.0,29.86,West,268,0.0,0.0,78,0.00,,,0.00,weatherlink.com 1.10,2013-06-17 01:23:00,
2013-06-16 20:38:00,72.7,66.0,29.86,West,268,0.0,1.0,79,0.00,,,0.00,weatherlink.com 1.10,2013-06-17 01:38:00,
2013-06-16 20:53:00,72.0,66.0,29.87,West,268,0.0,0.0,81,0.00,,,0.00,weatherlink.com 1.10,2013-06-17 01:53:00,
2013-06-16 21:08:00,71.3,65.0,29.87,West,268,0.0,0.0,81,0.00,,,0.00,weatherlink.com 1.10,2013-06-17 02:08:00,
2013-06-16 21:23:00,70.6,65.0,29.88,West,268,0.0,0.0,83,0.00,,,0.00,weatherlink.com 1.10,2013-06-17 02:23:00,
2013-06-16 21:38:00,70.2,65.0,29.88,West,268,0.0,0.0,84,0.00,,,0.00,weatherlink.com 1.10,2013-06-17 02:38:00,
2013-06-16 21:54:00,69.7,65.0,29.88,West,268,0.0,0.0,85,0.00,,,0.00,weatherlink.com 1.10,2013-06-17 02:54:00,
2013-06-16 22:08:00,68.8,65.0,29.88,West,268,0.0,1.0,87,0.00,,,0.00,weatherlink.com 1.10,2013-06-17 03:08:00,
2013-06-16 22:23:00,68.3,65.0,29.89,West,268,0.0,0.0,88,0.00,,,0.00,weatherlink.com 1.10,2013-06-17 03:23:00,
2013-06-16 22:38:00,68.1,65.0,29.88,West,268,0.0,0.0,89,0.00,,,0.00,weatherlink.com 1.10,2013-06-17 03:38:00,
2013-06-16 22:53:00,68.1,65.0,29.89,West,268,0.0,0.0,89,0.00,,,0.00,weatherlink.com 1.10,2013-06-17 03:53:00,
2013-06-16 23:08:00,67.8,65.0,29.89,West,268,0.0,1.0,89,0.00,,,0.00,weatherlink.com 1.10,2013-06-17 04:08:00,
2013-06-16 23:23:00,67.4,65.0,29.90,West,268,0.0,1.0,90,0.00,,,0.00,weatherlink.com 1.10,2013-06-17 04:23:00,
2013-06-16 23:38:00,67.1,64.0,29.90,West,268,0.0,1.0,90,0.00,,,0.00,weatherlink.com 1.10,2013-06-17 04:38:00,
2013-06-16 23:53:00,67.1,65.0,29.90,West,268,0.0,1.0,91,0.00,,,0.00,weatherlink.com 1.10,2013-06-17 04:53:00,